Regional Weather Roundup
Issued by NWS

Home | Current Version | Previous Version | Text Only | Print | Product List | Glossary On
Versions: 1 2 3 4 5 6 7 8 9 10 11 12 13 14 15 16 17 18 19 20 21 22 23 24 25 26 27 28 29 30 31 32 33 34 35 36 37 38 39 40 41 42 43 44 45 46 47 48 49 50
000
ASUS43 KMPX 192201
RWRMN
WEATHER ROUNDUP FOR MINNESOTA
NATIONAL WEATHER SERVICE TWIN CITIES/CHANHASSEN MN
500 PM CDT FRI SEP 19 2014


NOTE: "FAIR" INDICATES FEW OR NO CLOUDS BELOW 12,000 FEET WITH NO
SIGNIFICANT WEATHER AND/OR OBSTRUCTIONS TO VISIBILITY. N/A MEANS
CURRENT SKY AND/OR WEATHER CONDITIONS ARE NOT AVAILABLE.

MNZ060>063-068>070-192300-
   Twin Cities Metro

CITY           SKY/WX    TMP DP  RH WIND       PRES   REMARKS
TWIN CITIES    PTSUNNY   77  64  64 N8        29.67S
ST PAUL        PTSUNNY   79  65  62 W6        29.67S
CRYSTAL        PTSUNNY   75  63  66 NW5       29.66F
BLAINE         PTSUNNY   73  64  73 NW6       29.68F
LAKEVILLE      MOSUNNY   81  64  57 S12G21    29.67F
EDEN PRAIRIE   PTSUNNY   77  65  66 N5        29.66S
SOUTH ST PAUL  PTSUNNY   81  63  53 SW7       29.67S
LAKE ELMO      CLOUDY    77  64  65 SW5       29.68F
$$
MNZ001>005-007-008-013>017-022>024-027-028-192300-
   Northwest Minnesota

CITY           SKY/WX    TMP DP  RH WIND       PRES   REMARKS
BEMIDJI        CLOUDY    66  61  84 SW9       29.59R
HALLOCK        SUNNY     79  63  57 S6        29.48S
ROSEAU         MOSUNNY   73  64  73 SW10      29.52S
WARROAD        MOSUNNY   70  64  83 SW8       29.52S
THIEF RVR FALL SUNNY     73  64  73 S13       29.53F
CROOKSTON      SUNNY     77  66  69 S13       29.52F
FOSSTON        CLOUDY    72  64  78 SW12      29.57S
DETROIT LAKES  MOSUNNY   70  63  78 S12       29.61S
MOORHEAD       SUNNY     79  66  65 SW13      29.57S
PARK RAPIDS    CLOUDY    66  62  87 SW14      29.60F
MAHNOMEN       MOCLDY    73  64  73 SW16      29.57S
$$
MNZ006-009>011-018-025>026-192300-
   North Central Minnesota

CITY           SKY/WX    TMP DP  RH WIND       PRES   REMARKS
BAUDETTE       PTSUNNY   68  63  84 SW9       29.53S
FLAG ISLAND    PTSUNNY   63  61  94 SE6       29.51F FOG
INTL FALLS     CLOUDY    64  62  93 SW7       29.56R
WASKISH        CLOUDY    66  63  88 CALM      29.57R
BIG FORK       CLOUDY    63  61  94 SW9       29.60R FOG
LONGVILLE      CLOUDY    63  61  94 S7G16     29.61F FOG
GRAND RAPIDS   CLOUDY    61  57  88 S10       29.63R
CRANE LAKE     CLOUDY    61  57  88 S5        29.59R
ORR            CLOUDY    61  57  88 S6        29.56R
COOK           CLOUDY    61  59  94 SW7       29.60S
WALKER         CLOUDY    64  61  88 SW7       29.59F
$$
MNZ012-019>021-037-192300-
   Northeast Minnesota

CITY           SKY/WX    TMP DP  RH WIND       PRES   REMARKS
DULUTH         CLOUDY    62  58  86 SW13      29.67R FOG
ELY            DRIZZLE   57  55  94 S8        29.59F
HIBBING        CLOUDY    62  58  86 SW8       29.63F
EVELETH        CLOUDY    59  59 100 SW8       29.64F FOG
DULUTH HARBOR  LGT RAIN  63  61  94 S9        29.65S
TWO HARBORS    DRIZZLE   61  55  82 SW6       29.64S
SILVER BAY     LGT RAIN  59  59 100 S6        29.62F
GRAND MARAIS     N/A     53  52  96 SW5       29.64R
G MARAIS ARPRT RAIN      55  52  88 S10G16    29.65F
$$
MNZ029>031-032-039>041-046>048-054>057-064-192300-
   West Central Minnesota

CITY           SKY/WX    TMP DP  RH WIND       PRES   REMARKS
FERGUS FALLS   MOSUNNY   73  63  68 S12       29.61S
WHEATON        PTSUNNY   73  64  73 SW6       29.63S
MORRIS         CLOUDY    73  66  78 S6        29.63S
ALEXANDRIA     PTSUNNY   68  65  90 SW10      29.66S
ELBOW LAKE     PTSUNNY   72  65  80 SW10      29.63S
WADENA         CLOUDY    66  63  88 SW9       29.63S
GLENWOOD       CLOUDY    72  64  78 S8        29.65F
APPLETON       CLOUDY    79  66  65 S6        29.62S
BENSON         LGT RAIN  73  66  78 SW5       29.64F
ORTONVILLE     CLOUDY    77  64  65 W3        29.63S
MADISON        CLOUDY    82  68  61 CALM      29.64R
WILLMAR        FAIR      75  64  69 CALM      29.66F
$$
MNZ033>034-036-042>043-049>051-058-059-192300-
   Central Minnesota

CITY           SKY/WX    TMP DP  RH WIND       PRES   REMARKS
ST CLOUD       CLOUDY    70  62  76 S8        29.67F
SAUK CENTRE    MOCLDY    66  64  94 SE7       29.64R FOG
PAYNESVILLE    LGT RAIN  66  64  90 SE6       29.66S
AITKIN         CLOUDY    64  59  82 S8        29.63F HAZE
PINE RIVER     CLOUDY    63  63 100 S6        29.66F FOG
BRAINERD       CLOUDY    61  61 100 S9        29.65F FOG
STAPLES        CLOUDY    63  63 100 S9        29.65R FOG
LONG PRAIRIE   LGT RAIN  63  63 100 SE5       29.64F
LITTLE FALLS   CLOUDY    63  61  94 S7        29.68R FOG
LITCHFIELD     PTSUNNY   73  68  83 CALM      29.67F
BUFFALO        CLOUDY    73  63  71 SW3       29.68F
MAPLE LAKE     CLOUDY    71  65  81 S3        29.68F
$$
MNZ037-044-045-052-053-192300-
   East Central Minnesota

CITY           SKY/WX    TMP DP  RH WIND       PRES   REMARKS
PRINCETON      CLOUDY    70  63  78 S5        29.67F
MORA           PTSUNNY   64  59  82 S5        29.67F
CAMBRIDGE      PTSUNNY   70  59  68 S5        29.65F
RUSH CITY      CLOUDY    67  60  80 S3        29.68F
MOOSE LAKE     LGT RAIN  61  59  94 S3        29.65R
HINCKLEY       CLOUDY    64  61  88 S3        29.67S
CLOQUET        CLOUDY    61  59  94 S8        29.68R FOG
MCGREGOR       CLOUDY    63  61  94 S9        29.64F
$$
MNZ071>073-080-081-089-090-097-098-192300-
   Southwest Minnesota

CITY           SKY/WX    TMP DP  RH WIND       PRES   REMARKS
MONTEVIDEO     CLOUDY    81  70  69 NW3       29.65S
GRANITE FALLS  PTSUNNY   80  66  64 W7        29.65F
CANBY          CLOUDY    80  67  64 W9        29.66S
MARSHALL       PTSUNNY   81  66  61 W8        29.65S
REDWOOD FALLS  MOSUNNY   82  66  58 SW9       29.64F
OLIVIA         PTSUNNY   77  64  65 CALM      29.65F
PIPESTONE      PTSUNNY   82  63  51 W16       29.70S
WINDOM         MOSUNNY   84  66  54 SW15G21   29.69S
WORTHINGTON    SUNNY     84  64  51 SW17G29   29.71S
JACKSON        MOSUNNY   86  61  42 SW18G29   29.72S
TRACY          PTSUNNY   83  67  57 SW9       29.67R
SLAYTON        FAIR      83  63  49 SW20G25   29.70S
$$
MNZ065>067-074>077-082>085-091>093-192300-
   South Central Minnesota

CITY           SKY/WX    TMP DP  RH WIND       PRES   REMARKS
MANKATO        MOSUNNY   84  63  48 SW13G25   29.68S
NEW ULM        MOSUNNY   82  66  57 SW12G17   29.67R
FAIRMONT       SUNNY     84  57  39 SW14G25   29.72R
GLENCOE        PTSUNNY   79  63  57 SW5       29.67R
FARIBAULT      PTSUNNY   84  59  42 S13G23    29.70S
OWATONNA       SUNNY     82  63  51 S21G28    29.72S
WASECA         MOSUNNY   81  59  47 S16G26    29.73R
ALBERT LEA     SUNNY     81  63  54 S16G29    29.72R
$$
MNZ078>079-086>088-094>096-192300-
   Southeast Minnesota

CITY           SKY/WX    TMP DP  RH WIND       PRES   REMARKS
ROCHESTER      SUNNY     76  61  59 S20G33    29.74R
RED WING       CLOUDY    79  61  53 S15       29.70R
STANTON        CLOUDY    81  62  52 S14G20    29.68S
DODGE CENTER   SUNNY     77  63  61 S21G28    29.73R
WINONA         SUNNY     77  59  53 S9G23     29.74S
AUSTIN         SUNNY     75  63  64 S26G36    29.72F
PRESTON        SUNNY     74  64  71 S30G37    29.75F
$$
ABBREVIATIONS USED IN REMARKS
   TC - TEMPERATURES IN CELSIUS
  WCI - WIND CHILL INDEX
   HX - HEAT INDEX
  VSB - VISIBILITY
$$



USA.gov is the U.S. government's official web portal to all federal, state and local government web resources and services.